Jordan, MT

3:05 AM MDT on September 25, 2017 (GMT -0600)
Jordan

Weather History for KJDN - November, 2013

Change the Weather History Date:

Sunday, November 24, 2013

  Actual Average Record
Temperature  
Mean Temperature 31 °F 26 °F  
Max Temperature 44 °F 39 °F 65 °F (1949)
Min Temperature 17 °F 13 °F -26 °F (1993)
Degree Days  
Heating Degree Days 34 39  
Month to date heating degree days 869 804  
Since 1 July heating degree days 1715 1777  
Cooling Degree Days 0 0  
Month to date cooling degree days 0 0  
Year to date cooling degree days 520 421  
Moisture  
Dew Point 19 °F    
Average Humidity 65    
Maximum Humidity 84    
Minimum Humidity 45    
Precipitation  
Precipitation 0.00 in 0.01 in 0.15 in (1975)
Month to date precipitation 0.37 0.32  
Year to date precipitation 16.35 12.34  
Snow  
Snow 0.00 in - - ()
Month to date snowfall 0.0  
Since 1 July snowfall 0.0  
Since 1 September snowfall 0.0  
Snow Depth 0.00 in    
Sea Level Pressure  
Sea Level Pressure 30.11 in    
Wind  
Wind Speed 7 mph (WNW)    
Max Wind Speed 15 mph    
Max Gust Speed 22 mph    
T = Trace of Precipitation, MM = Missing Value Source: NWS Daily Summary

Daily Weather History Graph

Daily Weather History Graph

Search for Another Location

Airport or City:

Trip Planner

Search our weather history database for the weather conditions in past years. The results will help you decide how hot, cold, wet, or windy it might be!

Date:

Astronomy

Nov. 24, 2013 Rise Set
Actual Time 7:25 AM MST 4:23 PM MST
Civil Twilight 6:50 AM MST 4:57 PM MST
Nautical Twilight 6:13 AM MST 5:35 PM MST
Astronomical Twilight 5:36 AM MST 6:12 PM MST
Moon 11:05 PM MST (11/24) 12:02 PM MST (11/24)
Length of Visible Light 10h 06m
Length of Day
8h 58m
Waning Gibbous, 60% of the Moon is Illuminated
Nov 24
Waning Gibbous
Nov 25
Last Quarter
Dec 2
New
Dec 9
First Quarter
Dec 17
Full

Hourly Weather History & Observations

Time (MST) Temp. Windchill Dew Point Humidity Pressure Visibility Wind Dir Wind Speed Gust Speed Precip Events Conditions
12:48 AM 25.0 °F 17.1 °F 12.0 °F 58% 30.14 in - WNW 6.9 mph - N/A   Unknown
1:48 AM 24.1 °F 16.0 °F 10.9 °F 57% 30.12 in - West 6.9 mph - N/A   Unknown
2:48 AM 24.1 °F 15.2 °F 12.0 °F 60% 30.10 in - West 8.1 mph - N/A   Unknown
3:48 AM 26.1 °F 19.4 °F 14.0 °F 60% 30.08 in - West 5.8 mph - N/A   Unknown
4:48 AM 24.1 °F 15.2 °F 14.0 °F 65% 30.06 in - West 8.1 mph - N/A   Unknown
5:48 AM 21.0 °F 11.4 °F 12.9 °F 71% 30.07 in - West 8.1 mph - N/A   Unknown
6:48 AM 24.1 °F 13.7 °F 15.1 °F 69% 30.07 in - West 10.4 mph - N/A   Unknown
7:48 AM 24.1 °F - 15.1 °F 69% 30.06 in - Calm Calm - N/A   Unknown
8:48 AM 26.1 °F 21.9 °F 17.1 °F 69% 30.07 in - SW 3.5 mph - N/A   Unknown
9:48 AM 35.1 °F 28.6 °F 19.9 °F 54% 30.05 in - West 8.1 mph - N/A   Unknown
10:48 AM 39.9 °F 32.1 °F 21.0 °F 47% 30.02 in - WNW 13.8 mph - N/A   Unknown
11:48 AM 41.0 °F 34.3 °F 21.9 °F 47% 30.03 in - WNW 11.5 mph - N/A   Unknown
12:48 PM 43.0 °F 38.2 °F 24.1 °F 47% 30.05 in - WNW 8.1 mph - N/A   Unknown
1:48 PM 43.0 °F 40.3 °F 25.0 °F 49% 30.06 in - Variable 4.6 mph - N/A   Unknown
2:48 PM 43.0 °F 38.8 °F 25.0 °F 49% 30.06 in - WNW 6.9 mph - N/A   Unknown
3:48 PM 39.9 °F 37.8 °F 26.1 °F 58% 30.09 in - West 3.5 mph - N/A   Unknown
4:48 PM 33.1 °F 30.0 °F 25.0 °F 72% 30.13 in - NW 3.5 mph - N/A   Unknown
5:48 PM 27.0 °F 21.6 °F 21.9 °F 81% 30.15 in - West 4.6 mph - N/A   Unknown
6:48 PM 26.1 °F 18.4 °F 21.9 °F 84% 30.17 in - WNW 6.9 mph - N/A   Unknown
7:48 PM 26.1 °F 18.4 °F 21.0 °F 81% 30.19 in - WNW 6.9 mph - N/A   Unknown
8:48 PM 24.1 °F 18.2 °F 19.9 °F 84% 30.22 in - WSW 4.6 mph - N/A   Unknown
9:48 PM 21.0 °F 12.4 °F 18.0 °F 88% 30.23 in - WNW 6.9 mph - N/A   Unknown
10:48 PM 21.0 °F 14.6 °F 18.0 °F 88% 30.24 in - West 4.6 mph - N/A   Unknown
11:48 PM 19.9 °F 12.1 °F 17.1 °F 89% 30.26 in - WNW 5.8 mph - N/A   Unknown